[[[{"header":{"parameterUnit":"kt","parameterCategory":2,"dx":1,"dy":1,"la1":30.253999710083008,"la2":30.299108505249023,"lo1":-89.0895004272461,"lo2":-89.04439544677734,"nx":28,"ny":28,"refTime":"2022-10-30T21:00:00:Z","depth":0,"parameterNumber":1,"parameterNumberName":"U-component_of_WINDS"},"data":[-4.16,-4.1555,-4.1503,-4.1429,-4.137,-4.1311,-4.1274,-4.122,-4.1163,-4.1088,-4.1036,-4.0979,-4.0902,-4.0828,-4.077,-4.0745,-4.0726,-4.0751,-4.0719,-4.0654,-4.0642,-4.063,-4.0638,-4.0746,-4.0746,-4.0794,-4.0795,-4.0795,-4.1567,-4.1508,-4.1452,-4.1362,-4.1315,-4.1261,-4.1185,-4.115,-4.1098,-4.1027,-4.0971,-4.09,-4.0837,-4.0749,-4.068,-4.0661,-4.0631,-4.0646,-4.0648,-4.0638,-4.0566,-4.0575,-4.0671,-4.0671,-4.0671,-4.0671,-4.0671,-4.0671,-4.1493,-4.1468,-4.1382,-4.132,-4.1259,-4.12,-4.1167,-4.1095,-4.104,-4.0959,-4.0904,-4.0845,-4.0764,-4.0651,-4.06,-4.0554,-4.0528,-4.0527,-4.0527,-4.053,-4.0541,-4.0489,-4.0539,-4.0538,-4.0538,-4.0537,-4.0537,0,-4.1423,-4.1381,-4.1321,-4.1248,-4.1199,-4.1136,-4.1068,-4.1046,-4.0934,-4.0893,-4.0829,-4.0782,-4.0692,-4.0626,-4.0547,-4.0492,-4.0432,-4.0417,-4.0418,-4.0446,-4.0483,-4.0468,-4.0358,-4.0416,-4.0415,-4.0414,-4.0414,-4.0413,-4.1349,-4.1322,-4.1204,-4.117,-4.1118,-4.1064,-4.1021,-4.0923,-4.0882,-4.0784,-4.0766,-4.0697,-4.0637,-4.0543,-4.0458,-4.039,-4.036,-4.0389,-4.0349,-4.0378,-4.0365,-4.0369,-4.0368,-4.04,-4.0401,-4.0403,-4.0404,0,-4.1313,-4.1222,-4.1163,-4.1046,-4.1016,-4.0995,-4.0895,-4.0864,-4.0795,-4.0744,-4.0726,-4.0619,-4.0557,-4.0465,-4.0374,-4.0329,-4.0299,-4.0268,-4.0328,-4.0318,-4.0339,-4.034,-4.041,-4.0417,-4.0299,-4.03,-4.0301,0,-4.1215,-4.1183,-4.105,-4.102,-4.0983,-4.0883,-4.085,-4.0787,-4.0711,-4.0669,-4.0582,-4.0545,-4.0432,-4.0383,-4.0315,-4.0272,-4.0253,-4.0218,-4.0201,-4.0227,-4.0232,-4.0205,-4.0202,-4.0157,-4.0157,-4.0156,-4.0156,0,-4.117,-4.1058,-4.1009,-4.0969,-4.0838,-4.0818,-4.0763,-4.0675,-4.0633,-4.0562,-4.0534,-4.0458,-4.0418,-4.0362,-4.0276,-4.0253,-4.022,-4.017,-4.0183,-4.0186,-4.0182,-4.0184,-4.0268,-4.0156,-4.0156,-4.0156,-4.0155,0,-4.1076,-4.1005,-4.0945,-4.0835,-4.081,-4.0776,-4.0695,-4.0644,-4.0558,-4.0512,-4.0455,-4.0386,-4.0337,-4.0295,-4.0228,-4.0223,-4.0189,-4.0148,-4.0147,-4.0139,-4.0095,-4.016,-4.0245,-4.0253,-4.0131,-4.0131,-4.0131,0,-4.1053,-4.0966,-4.0878,-4.0823,-4.077,-4.0676,-4.0637,-4.0562,-4.0497,-4.0443,-4.0371,-4.031,-4.0259,-4.0227,-4.0205,-4.0129,-4.0136,-4.0125,-4.0055,-4.0054,-4.0085,-4.0162,-4.0199,-4.0237,-4.0127,-4.0127,-4.0127,0,-4.1022,-4.086,-4.0856,-4.0806,-4.0687,-4.0641,-4.0595,-4.0511,-4.0481,-4.0403,-4.0365,-4.0273,-4.0233,-4.0179,-4.0113,-4.0096,-4.0129,-4.0053,-4.0049,-4.0074,-4.0115,-4.0152,-4.0158,-4.0089,-4.0089,-4.0089,-4.0124,0,-4.0909,-4.085,-4.0833,-4.0722,-4.0671,-4.0628,-4.0526,-4.0486,-4.0428,-4.0359,-4.0297,-4.0207,-4.0121,-4.01,-4.0042,-4.0029,-4.0017,-3.9972,-3.9926,-3.9976,-3.9985,-3.9988,-3.9921,-3.9919,-3.9917,-3.9916,0,0,-4.0911,-4.0824,-4.0726,-4.0675,-4.0626,-4.0526,-4.0491,-4.043,-4.0311,-4.028,-4.0253,-4.0113,-4.0039,-3.9976,-3.9983,-3.9946,-3.9936,-3.9921,-3.9952,-3.9956,-3.996,-3.9972,-3.9977,-3.9913,-3.9912,-3.9912,-3.9911,0,-4.0848,-4.0773,-4.0737,-4.067,-4.0567,-4.0494,-4.0486,-4.0366,-4.0319,-4.0255,-4.0174,-4.0124,-4.0011,-3.9946,-3.9899,-3.9926,-3.9868,-3.9907,-3.9958,-3.9938,-3.9945,-3.9951,-3.9964,-3.997,-3.9907,-3.9907,-3.9907,0,-4.0801,-4.0712,-4.0682,-4.0561,-4.0492,-4.0438,-4.0364,-4.0307,-4.0266,-4.0157,-4.0095,-4.0031,-3.9933,-3.9884,-3.9857,-3.9832,-3.9812,-3.9797,-3.9805,-3.98,-3.9776,-3.9785,-3.9792,-3.9697,-3.9696,-3.9696,0,0,-4.0761,-4.0704,-4.0575,-4.054,-4.0502,-4.0391,-4.035,-4.0287,-4.02,-4.0166,-4.0081,-4.0,-3.9934,-3.9893,-3.9824,-3.9784,-3.9757,-3.9776,-3.9785,-3.9794,-3.9794,-3.9773,-3.9781,-3.9695,-3.9695,-3.9695,0,0,-4.0741,-4.0591,-4.0546,-4.0491,-4.0412,-4.0282,-4.0265,-4.0207,-4.0134,-4.0127,-4.0017,-3.999,-3.9941,-3.988,-3.9877,-3.9806,-3.9762,-3.976,-3.9848,-3.9859,-3.9868,-3.9885,-3.9788,0,0,0,0,0,-4.0622,-4.0609,-4.057,-4.0545,-4.0389,-4.0304,-4.0284,-4.0191,-4.0163,-4.0152,-4.0072,-4.001,-3.9856,-3.9851,-3.9829,-3.9833,-3.9681,-3.9683,-3.9686,-3.9789,-3.9802,-3.9812,0,0,0,0,0,0,-4.0611,-4.0581,-4.057,-4.0442,-4.0406,-4.0304,-4.0235,-4.021,-4.0162,-4.0151,-4.0028,-4.0006,-3.9926,-3.9857,-3.9838,-3.9844,-3.9794,-3.9682,-3.9684,-3.9686,-3.9793,-3.9804,-3.9812,0,0,0,0,0,-4.0602,-4.0578,-4.0352,-4.0441,-4.041,-4.0285,-4.0235,-4.0213,-4.0174,-4.0049,-4.0025,-4.0109,-3.9929,-3.9906,-3.9845,-3.9855,-3.9806,-3.98,-3.9683,-3.9685,-3.9686,-3.9798,0,0,0,0,0,0,-4.0596,-4.0557,-4.0344,-4.0331,-4.0438,-4.0288,-4.0262,-4.0217,-4.0073,-4.005,-4.0125,-4.0118,-3.993,-3.9913,-3.9896,-3.9864,-3.9817,-3.981,-3.9805,-3.9684,-3.9686,-3.9687,0,0,0,0,0,0,-4.057,-4.0547,-4.0337,-4.0338,-4.0324,-4.0293,-4.0269,-4.0202,-4.0073,-4.0157,-4.0146,-4.0123,-3.9956,-3.9917,-3.9904,-3.9803,-3.9824,-3.9818,-3.9813,-3.981,-3.9685,-3.9686,0,0,0,0,0,0,-4.0559,-4.0539,-4.0341,-4.0331,-4.0318,-4.0167,-4.0232,-4.0077,-4.0074,-4.0165,-4.0071,-4.0069,-3.9962,-3.9946,-3.991,-3.9815,-3.9806,-3.9824,-3.982,-3.9817,-3.9814,0,0,0,0,0,0,0,-4.055,-4.0702,-4.042,-4.0324,-4.0313,-4.0212,-4.0208,-4.0205,-4.0073,-4.0072,-4.0071,-4.007,-3.9862,-3.9855,-3.9847,-3.9825,0,0,-3.9825,-3.9822,0,0,0,0,0,0,0,0,-4.0708,-4.0704,-4.042,-4.0417,-4.0415,-4.0211,-4.0208,-4.0205,-4.0073,-4.0072,-4.0071,-4.007,-3.986,-3.9854,-3.9848,0,0,0,0,0,0,0,0,0,0,0,0,0,0,0,-4.042,-4.0417,0,-4.0211,-4.0208,-4.0206,-4.0073,-4.0072,-4.0072,-4.0071,-3.9858,-3.9854,-3.9849,0,0,0,0,0,0,0,0,0,0,0,0,0,0,0,0,0,0,0,0,0,0,0,0,0,0,0,0,0,0,0,0,0,0,0,0,0,0,0,0,0,0,0,0,0,0,0,0,0,0,0,0,0,0,0,0,0,0,0,0,0,0,0,0,0,0,0,0,0]}],[{"header":{"parameterUnit":"kt","parameterCategory":2,"dx":1,"dy":1,"la1":30.253999710083008,"la2":30.299108505249023,"lo1":-89.0895004272461,"lo2":-89.04439544677734,"nx":28,"ny":28,"refTime":"2022-10-30T21:00:00:Z","depth":0,"parameterNumber":2,"parameterNumberName":"V-component_of_WINDS"},"data":[-0.6125,-0.6131,-0.6128,-0.6135,-0.6133,-0.6137,-0.6138,-0.6139,-0.6139,-0.6144,-0.6147,-0.6145,-0.6144,-0.6148,-0.6151,-0.615,-0.6153,-0.6158,-0.6157,-0.6134,-0.6131,-0.6128,-0.6126,-0.6159,-0.6159,-0.6182,-0.6182,-0.6182,-0.6112,-0.6111,-0.6112,-0.6112,-0.6114,-0.6108,-0.6107,-0.6109,-0.6113,-0.6113,-0.6115,-0.6119,-0.6123,-0.612,-0.6123,-0.6127,-0.6125,-0.6129,-0.6129,-0.6129,-0.6104,-0.6103,-0.6131,-0.6131,-0.6131,-0.6131,-0.6131,-0.6131,-0.6089,-0.6093,-0.609,-0.6092,-0.6091,-0.6091,-0.6094,-0.609,-0.6092,-0.6094,-0.6089,-0.6093,-0.6092,-0.6093,-0.6093,-0.6097,-0.6093,-0.6096,-0.6097,-0.6099,-0.6101,-0.6073,-0.6097,-0.6097,-0.6097,-0.6097,-0.6097,0,-0.6071,-0.6068,-0.6069,-0.6069,-0.607,-0.6069,-0.6068,-0.607,-0.6062,-0.6064,-0.6066,-0.6067,-0.607,-0.6073,-0.6074,-0.6073,-0.6066,-0.6064,-0.6067,-0.6071,-0.6075,-0.6075,-0.6036,-0.6064,-0.6064,-0.6063,-0.6063,-0.6063,-0.6049,-0.6053,-0.6047,-0.6048,-0.6046,-0.6048,-0.6048,-0.604,-0.6041,-0.6039,-0.6043,-0.6045,-0.6046,-0.6051,-0.6047,-0.6049,-0.6046,-0.6057,-0.6046,-0.605,-0.6048,-0.6049,-0.6051,-0.606,-0.606,-0.6061,-0.6061,0,-0.6038,-0.603,-0.6034,-0.6028,-0.6027,-0.6031,-0.6026,-0.6029,-0.6024,-0.6028,-0.6029,-0.6022,-0.6024,-0.6018,-0.6019,-0.6016,-0.6027,-0.6023,-0.6028,-0.6028,-0.6039,-0.6039,-0.6071,-0.6076,-0.604,-0.604,-0.6041,0,-0.6016,-0.6021,-0.601,-0.6013,-0.6018,-0.6009,-0.6015,-0.6011,-0.6008,-0.6011,-0.6001,-0.6004,-0.5995,-0.5998,-0.5992,-0.6,-0.5999,-0.5998,-0.5997,-0.6,-0.6,-0.6001,-0.6,-0.5991,-0.5991,-0.5991,-0.5991,0,-0.6,-0.5998,-0.6002,-0.6,-0.5993,-0.5995,-0.5993,-0.5989,-0.5989,-0.5988,-0.5988,-0.5987,-0.5988,-0.5988,-0.5982,-0.5975,-0.5989,-0.5978,-0.5988,-0.5989,-0.5992,-0.5993,-0.6022,-0.5991,-0.5991,-0.5991,-0.5991,0,-0.5981,-0.5979,-0.5985,-0.5979,-0.5979,-0.5981,-0.598,-0.598,-0.5976,-0.5973,-0.5972,-0.5965,-0.5968,-0.5959,-0.5965,-0.5958,-0.5959,-0.5957,-0.5957,-0.5959,-0.5948,-0.5968,-0.5995,-0.5998,-0.5959,-0.5959,-0.5958,0,-0.5965,-0.5968,-0.596,-0.5965,-0.5966,-0.5955,-0.5957,-0.5954,-0.5949,-0.595,-0.5945,-0.5945,-0.5936,-0.5935,-0.5939,-0.5934,-0.5943,-0.5933,-0.5937,-0.5937,-0.594,-0.5964,-0.5971,-0.5989,-0.5955,-0.5955,-0.5955,0,-0.5952,-0.5941,-0.5942,-0.5941,-0.5933,-0.5933,-0.5935,-0.5933,-0.5934,-0.593,-0.5933,-0.5932,-0.5926,-0.5924,-0.5917,-0.5922,-0.5937,-0.5914,-0.5914,-0.592,-0.5951,-0.5958,-0.5961,-0.5932,-0.5933,-0.5933,-0.5952,0,-0.5929,-0.5928,-0.5931,-0.5925,-0.5923,-0.5925,-0.5916,-0.5916,-0.591,-0.5904,-0.5907,-0.5901,-0.5899,-0.59,-0.5893,-0.5904,-0.5902,-0.5894,-0.5885,-0.59,-0.5907,-0.5909,-0.5876,-0.5876,-0.5875,-0.5875,0,0,-0.5916,-0.5915,-0.5904,-0.5905,-0.5903,-0.589,-0.5894,-0.589,-0.5883,-0.5883,-0.5877,-0.5875,-0.5871,-0.5875,-0.5879,-0.5878,-0.588,-0.5874,-0.5892,-0.5894,-0.5896,-0.5903,-0.5906,-0.5875,-0.5874,-0.5874,-0.5874,0,-0.5906,-0.5899,-0.5902,-0.5898,-0.5891,-0.5884,-0.5885,-0.5876,-0.5872,-0.5874,-0.5864,-0.5864,-0.5862,-0.5859,-0.5857,-0.5873,-0.5866,-0.5872,-0.5885,-0.589,-0.5892,-0.5894,-0.5901,-0.5904,-0.5874,-0.5874,-0.5874,0,-0.5892,-0.5885,-0.5884,-0.5877,-0.5872,-0.5872,-0.586,-0.5859,-0.5859,-0.5846,-0.5847,-0.5843,-0.5837,-0.5842,-0.5843,-0.5838,-0.5854,-0.5846,-0.5848,-0.5848,-0.5853,-0.5856,-0.5858,-0.5826,-0.5826,-0.5825,0,0,-0.5884,-0.5882,-0.5871,-0.5874,-0.5872,-0.5861,-0.586,-0.5853,-0.5848,-0.5845,-0.5839,-0.5835,-0.5834,-0.5833,-0.5831,-0.5837,-0.5836,-0.5841,-0.5843,-0.5845,-0.5846,-0.5852,-0.5854,-0.5825,-0.5825,-0.5825,0,0,-0.588,-0.5867,-0.5862,-0.5863,-0.5858,-0.5848,-0.585,-0.5843,-0.584,-0.5838,-0.5827,-0.5825,-0.5829,-0.5825,-0.5819,-0.5828,-0.5818,-0.5819,-0.5831,-0.5833,-0.5835,-0.5837,-0.5806,0,0,0,0,0,-0.5864,-0.5869,-0.5864,-0.5863,-0.5853,-0.585,-0.5849,-0.584,-0.5834,-0.5836,-0.583,-0.5821,-0.582,-0.5815,-0.5814,-0.582,-0.5819,-0.582,-0.5821,-0.5837,-0.584,-0.5842,0,0,0,0,0,0,-0.5864,-0.5862,-0.5864,-0.5853,-0.5851,-0.585,-0.5838,-0.5835,-0.5833,-0.5831,-0.5823,-0.5821,-0.5813,-0.5815,-0.5814,-0.582,-0.5806,-0.5819,-0.582,-0.5821,-0.5838,-0.584,-0.5842,0,0,0,0,0,-0.5863,-0.5862,-0.5849,-0.5853,-0.5851,-0.584,-0.5837,-0.5835,-0.5833,-0.5823,-0.5821,-0.5826,-0.5814,-0.5813,-0.5814,-0.5821,-0.5806,-0.5806,-0.582,-0.5821,-0.5821,-0.5839,0,0,0,0,0,0,-0.5863,-0.586,-0.5848,-0.5847,-0.585,-0.584,-0.5838,-0.5835,-0.5825,-0.5823,-0.5826,-0.5825,-0.5814,-0.5813,-0.5812,-0.5821,-0.5807,-0.5806,-0.5806,-0.582,-0.5821,-0.5821,0,0,0,0,0,0,-0.5861,-0.5859,-0.5848,-0.5844,-0.5843,-0.584,-0.5838,-0.5838,-0.5825,-0.5829,-0.5827,-0.5826,-0.5815,-0.5813,-0.5813,-0.5813,-0.5807,-0.5807,-0.5807,-0.5807,-0.5821,-0.5821,0,0,0,0,0,0,-0.586,-0.5859,-0.5845,-0.5844,-0.5842,-0.5831,-0.5839,-0.583,-0.5822,-0.5829,-0.5821,-0.582,-0.5816,-0.5815,-0.5813,-0.5814,-0.5813,-0.5807,-0.5807,-0.5807,-0.5807,0,0,0,0,0,0,0,-0.5859,-0.5869,-0.5853,-0.5843,-0.5842,-0.5839,-0.5839,-0.5838,-0.5822,-0.5821,-0.5821,-0.582,-0.5808,-0.5807,-0.5807,-0.5814,0,0,-0.5807,-0.5807,0,0,0,0,0,0,0,0,-0.5869,-0.5869,-0.5853,-0.5853,-0.5853,-0.5839,-0.5839,-0.5838,-0.5821,-0.5821,-0.5821,-0.5821,-0.5808,-0.5807,-0.5807,0,0,0,0,0,0,0,0,0,0,0,0,0,0,0,-0.5853,-0.5853,0,-0.5839,-0.5839,-0.5838,-0.5821,-0.5821,-0.5821,-0.5821,-0.5808,-0.5807,-0.5807,0,0,0,0,0,0,0,0,0,0,0,0,0,0,0,0,0,0,0,0,0,0,0,0,0,0,0,0,0,0,0,0,0,0,0,0,0,0,0,0,0,0,0,0,0,0,0,0,0,0,0,0,0,0,0,0,0,0,0,0,0,0,0,0,0,0,0,0,0]}]]]